[[{"header":{"parameterUnit":"m.s-1","parameterCategory":1,"la1":30.2991,"la2":30.254,"lo1":-89.0895,"lo2":-89.0444,"dy":0.0017,"dx":0.0017,"nx":28,"ny":28,"refTime":"2025-04-12T09:00:00:Z","depth":0,"parameterNumber":2,"parameterNumberName":"U-component_of_WINDS"},"data":[0,0,0,0,0,0,0,0,0,0,0,0,0,0,0,0,0,0,0,0,0,0,0,0,0,0,0,0,0,0,0,0,0,0,0,0,0,0,0,0,0,0,0,0,0,0,0,0,0,0,0,0,0,0,0,0,0,0,-0.0619,-0.0618,0,-0.0488,-0.0486,-0.0485,-0.0446,-0.0446,-0.0447,-0.0448,-0.0313,-0.0309,-0.0305,0,0,0,0,0,0,0,0,0,0,0,0,0,-0.0837,-0.0833,-0.0619,-0.0618,-0.0616,-0.0488,-0.0486,-0.0485,-0.0445,-0.0446,-0.0447,-0.0448,-0.0314,-0.0309,-0.0304,0,0,0,0,0,0,0,0,0,0,0,0,0,-0.0728,-0.0832,-0.062,-0.0581,-0.0576,-0.0489,-0.0486,-0.0484,-0.0445,-0.0446,-0.0447,-0.0448,-0.0316,-0.031,-0.0304,-0.0245,0,0,-0.0284,-0.0282,0,0,0,0,0,0,0,0,-0.0734,-0.072,-0.0588,-0.0584,-0.0578,-0.0484,-0.0514,-0.0404,-0.0445,-0.0495,-0.0448,-0.0449,-0.0369,-0.0359,-0.0332,-0.0238,-0.0233,-0.0284,-0.028,-0.0277,-0.0276,0,0,0,0,0,0,0,-0.0742,-0.0725,-0.0567,-0.0587,-0.058,-0.0571,-0.0556,-0.0493,-0.0428,-0.0491,-0.0488,-0.0473,-0.0367,-0.0338,-0.0328,-0.0231,-0.0284,-0.0278,-0.0275,-0.0272,-0.0082,-0.0081,0,0,0,0,0,0,-0.0756,-0.0732,-0.0572,-0.0563,-0.066,-0.0566,-0.055,-0.0513,-0.0429,-0.0417,-0.0472,-0.0471,-0.0348,-0.0336,-0.0323,-0.0248,-0.0277,-0.0272,-0.0268,-0.0084,-0.0082,-0.0081,0,0,0,0,0,0,-0.0761,-0.0742,-0.0577,-0.0647,-0.0625,-0.0561,-0.0521,-0.051,-0.0481,-0.0414,-0.0403,-0.0454,-0.0348,-0.0332,-0.0265,-0.0243,-0.0269,-0.0263,-0.0085,-0.0083,-0.0081,-0.0098,0,0,0,0,0,0,-0.0767,-0.0744,-0.0721,-0.0647,-0.0621,-0.052,-0.0519,-0.0507,-0.0471,-0.0469,-0.0395,-0.0384,-0.0348,-0.0274,-0.0258,-0.0235,-0.0258,-0.0087,-0.0084,-0.0082,-0.0099,-0.0097,-0.0095,0,0,0,0,0,-0.0775,-0.0731,-0.072,-0.07,-0.0591,-0.0519,-0.0505,-0.0464,-0.0469,-0.0445,-0.0402,-0.0386,-0.0248,-0.0268,-0.0249,-0.0224,-0.0088,-0.0085,-0.0082,-0.01,-0.0097,-0.0095,0,0,0,0,0,0,-0.0804,-0.072,-0.0707,-0.0637,-0.0586,-0.0512,-0.0481,-0.0463,-0.0409,-0.0409,-0.0362,-0.0346,-0.0281,-0.0246,-0.0269,-0.0162,-0.0168,-0.0161,-0.0187,-0.0184,-0.0182,-0.0192,-0.0253,0,0,0,0,0,-0.0802,-0.075,-0.068,-0.0626,-0.06,-0.0545,-0.0512,-0.0486,-0.043,-0.0408,-0.036,-0.0307,-0.0252,-0.0216,-0.0162,-0.0094,-0.0077,-0.0068,-0.0066,-0.0065,-0.0059,-0.002,-0.0015,-0.0071,-0.0071,-0.0071,0,0,-0.0798,-0.0746,-0.0716,-0.063,-0.0587,-0.0534,-0.0527,-0.0472,-0.0432,-0.04,-0.0333,-0.0296,-0.0233,-0.0166,-0.0133,-0.0134,-0.004,-0.0061,-0.006,-0.0055,-0.0017,-0.0012,-0.0007,-0.0069,-0.007,-0.007,0,0,-0.0763,-0.0719,-0.0668,-0.0625,-0.056,-0.0523,-0.0512,-0.0441,-0.0415,-0.0347,-0.0322,-0.0275,-0.018,-0.0137,-0.0102,-0.0052,-0.0035,-0.0036,-0.0025,0.0012,0.0017,0.0021,0.0039,0.0045,-0.0031,-0.0031,-0.0031,0,-0.0766,-0.0686,-0.0644,-0.059,-0.0553,-0.0522,-0.047,-0.043,-0.0351,-0.0326,-0.0328,-0.0209,-0.0165,-0.0086,-0.0074,-0.0048,-0.0032,-0.0043,0.0013,0.0017,0.0022,0.004,0.0047,-0.0031,-0.0031,-0.0031,-0.0031,0,-0.0692,-0.0637,-0.0604,-0.0528,-0.0487,-0.0435,-0.0386,-0.035,-0.0327,-0.0291,-0.0222,-0.0168,-0.0102,-0.0082,-0.0059,0.0,-0.0002,0.0003,-0.0001,0.0026,0.0044,0.0051,-0.0032,-0.0032,-0.0032,-0.0031,0,0,-0.0671,-0.0573,-0.0561,-0.0526,-0.0452,-0.0409,-0.0355,-0.0291,-0.026,-0.0207,-0.016,-0.0082,-0.0076,-0.0037,-0.001,0.0022,0.006,0.0024,0.0027,0.003,0.0129,0.0125,0.0132,0.0071,0.0072,0.0073,0.0124,0,-0.0626,-0.0528,-0.049,-0.0411,-0.0359,-0.0329,-0.0282,-0.0232,-0.0197,-0.0148,-0.011,-0.0054,-0.0052,-0.0028,0.0005,0.0048,0.008,0.0045,0.0115,0.0117,0.0099,0.0142,0.0138,0.0183,0.0131,0.0132,0.0133,0,-0.056,-0.0506,-0.0422,-0.0354,-0.0331,-0.029,-0.0227,-0.0181,-0.0124,-0.0101,-0.0057,-0.0032,0.0025,0.0016,0.0096,0.0071,0.0102,0.0127,0.0129,0.0138,0.0127,0.0153,0.0198,0.0205,0.0145,0.0144,0.0143,0,-0.0553,-0.0458,-0.0395,-0.0367,-0.0286,-0.0258,-0.0223,-0.0167,-0.013,-0.0076,-0.0052,0.0008,0.0041,0.0087,0.0128,0.0117,0.0204,0.0198,0.0225,0.0224,0.0243,0.0241,0.0295,0.0261,0.0261,0.026,0.026,0,-0.0506,-0.0455,-0.0391,-0.0352,-0.0294,-0.0251,-0.0195,-0.0159,-0.0109,-0.0063,-0.0033,0.0009,0.006,0.011,0.0142,0.0203,0.0218,0.0238,0.0246,0.0236,0.0234,0.0258,0.0256,0.0262,0.0262,0.0261,0.0261,0,-0.0487,-0.0441,-0.0371,-0.0301,-0.0282,-0.0243,-0.0182,-0.0144,-0.0108,-0.005,-0.0034,0.0023,0.0082,0.0127,0.0204,0.0226,0.0291,0.0299,0.0272,0.0276,0.0301,0.0298,0.0373,0.0385,0.0342,0.0342,0.0342,0,-0.0459,-0.0419,-0.0345,-0.0312,-0.0277,-0.0224,-0.0187,-0.0143,-0.0106,-0.0038,-0.0007,0.0054,0.0106,0.0199,0.0247,0.0306,0.0317,0.0339,0.0326,0.0315,0.0318,0.0316,0.032,0.0341,0.0341,0.0341,0.0341,0,-0.0415,-0.0395,-0.0342,-0.0282,-0.0238,-0.0188,-0.0138,-0.0113,-0.006,-0.0019,0.0042,0.0082,0.016,0.0221,0.0285,0.0321,0.034,0.0345,0.0354,0.0345,0.0328,0.0339,0.0278,0.0343,0.0343,0.0343,0.0343,0.0343,-0.039,-0.0353,-0.0295,-0.0238,-0.0195,-0.0149,-0.0109,-0.0068,-0.0017,0.0051,0.0073,0.0137,0.0193,0.0281,0.0317,0.0367,0.0367,0.0381,0.0384,0.0387,0.0387,0.0319,0.0378,0.0378,0.0378,0.0378,0.0378,0,-0.0344,-0.0305,-0.0253,-0.0183,-0.0138,-0.0124,-0.0068,-0.0031,0.0024,0.0075,0.0125,0.0196,0.0254,0.0307,0.0368,0.0398,0.0408,0.0413,0.0411,0.0419,0.0383,0.0369,0.0403,0.0403,0.0403,0.0403,0.0403,0.0403,-0.0315,-0.0251,-0.0224,-0.014,-0.0101,-0.0039,-0.0008,0.0035,0.0075,0.0153,0.0202,0.0235,0.0287,0.0352,0.0406,0.042,0.0442,0.0444,0.046,0.0425,0.0422,0.0419,0.0406,0.0448,0.0448,0.0493,0.0493,0.0494]},{"header":{"parameterUnit":"m.s-1","parameterCategory":1,"la1":30.2991,"la2":30.254,"lo1":-89.0895,"lo2":-89.0444,"dy":0.0017,"dx":0.0017,"nx":28,"ny":28,"refTime":"2025-04-12T09:00:00:Z","depth":0,"parameterNumber":3,"parameterNumberName":"V-component_of_WINDS"},"data":[0,0,0,0,0,0,0,0,0,0,0,0,0,0,0,0,0,0,0,0,0,0,0,0,0,0,0,0,0,0,0,0,0,0,0,0,0,0,0,0,0,0,0,0,0,0,0,0,0,0,0,0,0,0,0,0,0,0,5.6135,5.6135,0,5.6131,5.6131,5.6131,5.6038,5.6036,5.6033,5.6031,5.6027,5.6029,5.6031,0,0,0,0,0,0,0,0,0,0,0,0,0,5.6062,5.6064,5.6135,5.6135,5.6135,5.6131,5.6131,5.6131,5.6038,5.6036,5.6033,5.603,5.6026,5.6029,5.6031,0,0,0,0,0,0,0,0,0,0,0,0,0,5.6079,5.6064,5.6135,5.6088,5.6084,5.6131,5.6131,5.6131,5.6039,5.6036,5.6032,5.6029,5.6025,5.6029,5.6032,5.6123,0,0,5.6041,5.6043,0,0,0,0,0,0,0,0,5.6078,5.6082,5.6095,5.6092,5.6087,5.6081,5.6103,5.6128,5.604,5.6056,5.6031,5.6027,5.6048,5.6049,5.6056,5.6123,5.6122,5.6042,5.6044,5.6045,5.6046,0,0,0,0,0,0,0,5.6077,5.6082,5.6133,5.6095,5.609,5.6067,5.6066,5.6108,5.6072,5.6054,5.6048,5.6049,5.6045,5.6053,5.6055,5.6122,5.6042,5.6044,5.6046,5.6048,5.6262,5.6266,0,0,0,0,0,0,5.6083,5.6081,5.6133,5.6133,5.6074,5.6072,5.607,5.6087,5.6071,5.6066,5.6052,5.6044,5.605,5.6052,5.6055,5.6159,5.6045,5.6048,5.605,5.6258,5.6263,5.6267,0,0,0,0,0,0,5.6081,5.6088,5.6134,5.6105,5.6109,5.6077,5.6096,5.6089,5.6097,5.6069,5.6062,5.6067,5.6047,5.605,5.6106,5.6158,5.6049,5.6052,5.6254,5.626,5.6265,5.637,0,0,0,0,0,0,5.608,5.6088,5.6123,5.6107,5.6111,5.6186,5.6099,5.6091,5.6102,5.6093,5.6082,5.6076,5.6044,5.6102,5.611,5.616,5.6055,5.6249,5.6257,5.6263,5.6362,5.6379,5.6393,0,0,0,0,0,5.6077,5.6153,5.6125,5.6132,5.6154,5.6189,5.6191,5.6153,5.6107,5.6141,5.6123,5.6077,5.6152,5.6109,5.6116,5.6169,5.6246,5.6254,5.6263,5.6355,5.6376,5.6393,0,0,0,0,0,0,5.6176,5.615,5.6119,5.6191,5.6193,5.6173,5.6215,5.6176,5.6191,5.6181,5.6133,5.6131,5.6194,5.6187,5.614,5.6256,5.619,5.6201,5.6258,5.6277,5.6293,5.6292,5.6057,0,0,0,0,0,5.6206,5.6237,5.6212,5.6279,5.6281,5.6248,5.6262,5.6232,5.6232,5.6232,5.6219,5.622,5.6243,5.626,5.628,5.6361,5.6356,5.6401,5.6416,5.6429,5.6439,5.6479,5.6499,5.6295,5.6295,5.6295,0,0,5.6269,5.6258,5.6281,5.6298,5.6296,5.6328,5.6249,5.6287,5.6311,5.6238,5.6289,5.628,5.6278,5.6346,5.6376,5.6342,5.6494,5.644,5.6451,5.6453,5.649,5.651,5.6527,5.6301,5.63,5.6299,0,0,5.6399,5.6395,5.6449,5.6448,5.6446,5.6423,5.6436,5.6422,5.6413,5.6464,5.641,5.6437,5.6479,5.6479,5.6485,5.6616,5.6573,5.6624,5.6705,5.6745,5.6761,5.6775,5.6821,5.6838,5.6633,5.6634,5.6634,0,5.6477,5.6524,5.6482,5.6523,5.6532,5.6468,5.6522,5.6523,5.6528,5.6535,5.6498,5.6548,5.6543,5.661,5.6641,5.6649,5.6662,5.6624,5.6763,5.6776,5.6788,5.6831,5.6848,5.664,5.6639,5.6638,5.6638,0,5.6619,5.6653,5.6697,5.6702,5.6716,5.6764,5.6728,5.6748,5.6717,5.6698,5.6751,5.6742,5.6759,5.6773,5.6743,5.6836,5.6815,5.6771,5.6704,5.6815,5.6854,5.687,5.6648,5.6646,5.6644,5.6643,0,0,5.6812,5.6793,5.6809,5.681,5.6803,5.6827,5.6872,5.6888,5.6905,5.691,5.6946,5.6983,5.6942,5.6949,5.6919,5.6954,5.7057,5.6906,5.6905,5.6933,5.7156,5.7189,5.7208,5.7029,5.7032,5.7034,5.7156,0,5.6936,5.7011,5.6974,5.7053,5.7082,5.7021,5.706,5.7059,5.7043,5.7066,5.7048,5.7074,5.7019,5.7022,5.7055,5.7037,5.7101,5.7028,5.7061,5.7062,5.7062,5.7229,5.7263,5.7379,5.7171,5.7174,5.7176,0,5.7092,5.7103,5.7185,5.717,5.7181,5.7217,5.7228,5.7251,5.7249,5.7234,5.7242,5.7203,5.7245,5.718,5.7237,5.7189,5.72,5.7193,5.7197,5.7197,5.7125,5.7233,5.7415,5.7432,5.72,5.7198,5.7196,0,5.7222,5.7258,5.7311,5.7314,5.7299,5.7325,5.732,5.7314,5.7326,5.7336,5.7343,5.7359,5.7367,5.7379,5.7346,5.7302,5.7407,5.7339,5.7396,5.7397,5.742,5.7419,5.7605,5.743,5.7429,5.7429,5.7429,0,5.7365,5.7417,5.7369,5.7402,5.7458,5.7415,5.7472,5.746,5.7456,5.7485,5.7433,5.7462,5.7416,5.744,5.7415,5.7465,5.747,5.7459,5.7451,5.7463,5.7464,5.7468,5.7459,5.7434,5.7433,5.7432,5.7431,0,5.752,5.749,5.7543,5.7524,5.7521,5.7563,5.7547,5.7576,5.7556,5.7594,5.76,5.7569,5.7594,5.7563,5.7585,5.7568,5.7636,5.7617,5.7637,5.7631,5.7689,5.7684,5.7884,5.7907,5.7718,5.772,5.7722,0,5.7612,5.765,5.7636,5.7651,5.7649,5.7675,5.7686,5.7646,5.766,5.766,5.7689,5.771,5.7724,5.7768,5.7747,5.7764,5.7744,5.7813,5.7746,5.7757,5.7744,5.7741,5.7745,5.7827,5.7829,5.7831,5.7832,0,5.7779,5.7762,5.778,5.7794,5.7809,5.7817,5.7822,5.7838,5.7795,5.7814,5.7839,5.785,5.7873,5.7894,5.7905,5.79,5.7859,5.7854,5.7867,5.7879,5.7888,5.7883,5.7673,5.7849,5.7847,5.7846,5.7845,5.7845,5.7904,5.7935,5.7929,5.7951,5.795,5.7956,5.7982,5.7965,5.7985,5.8,5.7975,5.8006,5.8002,5.8013,5.8012,5.8036,5.8006,5.8027,5.8031,5.8037,5.8045,5.7886,5.8038,5.8038,5.8037,5.8037,5.8036,0,5.8067,5.806,5.8081,5.8088,5.8106,5.8066,5.8069,5.8086,5.8114,5.8114,5.8129,5.8157,5.8177,5.8159,5.8175,5.8198,5.8179,5.8203,5.8201,5.82,5.8071,5.8057,5.8218,5.8218,5.8218,5.8218,5.8218,5.8218,5.8154,5.8203,5.8186,5.8234,5.8226,5.8256,5.8261,5.8266,5.8265,5.8299,5.8315,5.8303,5.8295,5.831,5.8327,5.8321,5.8329,5.8359,5.8347,5.8227,5.8209,5.8192,5.8178,5.8362,5.8362,5.8473,5.8474,5.8475]}]]